User: anonymous   Login
Location: Unspecified
(0.0000°N, 0.0000°E)
Time: 19:01:12
(UTC+00:00)
Language:

STARLINK-2461 - Orbit

View from above orbital plane
View from above orbital plane
View from above satellite
View from above satellite

Ground track
Ground track

The orbit is defined by the following mean orbital elements,

1 48428U          26145.48590189 +.00000000 +00000-0 -29811-4 0 00007
2 48428  53.1585 181.5475 0001325  84.2688 275.8465 15.31707009    03
Epoch (UTC): 25 May 2026 11:39:41
Eccentricity: 0.0001325
inclination: 53.1585°
perigee height: 470 km
apogee height: 472 km
right ascension of ascending node: 181.5475°
argument of perigee: 84.2688°
revolutions per day: 15.31707009
mean anomaly at epoch: 275.8465°

The dashed part of the orbit path shows where the satellite is in the earth's shadow,  

DLR